Home > Weather > Lohne (Oldenburg) > Past weeks

Flag for Germany Past Weather in Lohne (Oldenburg), Lower Saxony, Germany — Yesterday and Last 2 Weeks

Now
81 °F

Passing clouds.


Feels Like: 81 °F
Forecast: 64 / 76 °F
Wind: 5 mph from North

Location: Bremen Airport

Current Time: Jul 24, 2016 at 2:57:25 PM

Latest Report: Jul 24, 2016 at 2:20 PM


Visibility: N/A

Pressure: 30.09 "Hg

Humidity: 48%

Dew Point: 59 °F

Location of Lohne (Oldenburg)Location

Past Weather in Lohne (Oldenburg) — Graph

°F

Lohne (Oldenburg) Temperature Yesterday

Maximum temperature yesterday: 81 °F (at 5:50 PM)
Minimum temperature yesterday: 63 °F (at 2:20 AM)
Average temperature yesterday: 72 °F

High & Low Weather Summary for the Past Weeks

 TemperatureHumidityPressure
High88 °F (Jul 20, 3:50 PM)100% (Jul 12, 11:50 PM)30.24 "Hg (Jul 12, 11:50 PM)
Low52 °F (Jul 14, 6:20 AM)33% (Jul 20, 4:50 PM)29.71 "Hg (Jul 10, 8:20 PM)
Average67 °F76%30.01 "Hg
* Reported Jul 9 1:20 PM — Jul 24 1:20 PM, Lohne (Oldenburg), Weather by CustomWeather, © 2016

Note: Actual official high and low records may vary slightly from our data, if they occured in-between our weather recording intervals... More about our weather records

Advertising

Lohne (Oldenburg) Weather History for the Previous 24 Hours

Scroll right to see more
 ConditionsComfort  
Time TempWeatherWind HumidityBarometerVisibility
1:20 PM
Sun, Jul 24
81 °FPassing clouds.6 mph54%30.09 "HgN/A
12:50 PM79 °FPassing clouds.6 mph58%30.09 "HgN/A
12:20 PM79 °FPassing clouds.6 mph61%30.09 "HgN/A
11:50 AM75 °FPassing clouds.8 mph69%30.09 "HgN/A
11:20 AM73 °FSunny.9 mph78%30.09 "Hg10 mi
10:50 AM75 °FSunny.8 mph74%30.09 "Hg10 mi
10:20 AM73 °FPassing clouds.6 mph74%30.09 "HgN/A
9:50 AM72 °FScattered clouds.6 mph83%30.09 "HgN/A
9:20 AM70 °FScattered clouds.5 mph83%30.09 "HgN/A
8:50 AM66 °FScattered clouds.6 mph94%30.09 "HgN/A
8:20 AM64 °FScattered clouds.5 mph94%30.09 "HgN/A
7:50 AM64 °FSunny.5 mph94%30.09 "Hg10 mi
7:20 AM64 °FPartly sunny.5 mph94%30.09 "HgN/A
6:50 AM63 °FScattered clouds.3 mph100%30.09 "HgN/A
6:20 AM63 °FPassing clouds.5 mph94%30.09 "HgN/A
5:50 AM63 °FFog.3 mph94%30.09 "Hg2 mi
5:20 AM63 °FClear.5 mph94%30.09 "Hg10 mi
4:50 AM64 °FClear.5 mph88%30.09 "Hg10 mi
4:20 AM64 °FClear.5 mph88%30.09 "Hg10 mi
3:50 AM64 °FClear.5 mph88%30.09 "Hg10 mi
3:20 AM66 °FClear.No wind83%30.09 "Hg10 mi
2:50 AM66 °FClear.No wind88%30.09 "Hg10 mi
2:20 AM66 °FClear.1 mph88%30.09 "Hg10 mi
1:50 AM66 °FClear.1 mph83%30.09 "Hg10 mi
1:20 AM68 °FClear.2 mph73%30.09 "Hg10 mi
12:50 AM68 °FClear.No wind73%30.09 "Hg10 mi
12:20 AM68 °FClear.2 mph78%30.09 "Hg10 mi
11:50 PM
Sat, Jul 23
68 °FClear.2 mph78%30.09 "Hg10 mi
11:20 PM70 °FClear.2 mph69%30.09 "Hg10 mi
10:50 PM70 °FClear.2 mph69%30.09 "Hg10 mi
10:20 PM72 °FSunny.3 mph65%30.09 "Hg10 mi
9:50 PM72 °FSunny.2 mph69%30.09 "Hg10 mi
9:20 PM73 °FSunny.1 mph61%30.09 "Hg10 mi
8:50 PM75 °FSunny.2 mph54%30.07 "Hg10 mi
8:20 PM77 °FSunny.2 mph47%30.07 "Hg10 mi
7:50 PM75 °FSunny.3 mph57%30.07 "Hg10 mi
7:20 PM77 °FSunny.5 mph51%30.07 "Hg10 mi
6:50 PM79 °FPassing clouds.6 mph42%30.07 "HgN/A
6:20 PM79 °FPassing clouds.6 mph34%30.07 "HgN/A
5:50 PM81 °FPartly sunny.5 mph37%30.07 "HgN/A
5:20 PM77 °FPartly sunny.6 mph47%30.09 "HgN/A
4:50 PM77 °FPartly sunny.6 mph47%30.09 "HgN/A
4:20 PM79 °FPartly sunny.6 mph54%30.09 "HgN/A
3:50 PM79 °FOvercast.5 mph48%30.09 "HgN/A
3:20 PM79 °FOvercast.5 mph48%30.09 "HgN/A
2:50 PM77 °FOvercast.6 mph51%30.09 "HgN/A
2:20 PM79 °FOvercast.8 mph54%30.09 "HgN/A
Weather by CustomWeather, © 2016

See weather overviewHow to use our weather pages